(34101) Hesrivastava = 2000 PT15

Discovered at Socorro on 2000-08-01 by LINEAR.
(34101) Hesrivastava = 2000 PT15

Hemant Srivastava (b. 1999) was awarded second place in the 2017 Intel International Science and Engineering Fair for his translational medical science project. He attends the Alabama School of Fine Arts, Birmingham, Alabama, U.S.A. [Ref: Minor Planet Circ. 110628]

Orbit

Orbit type: Main Belt

Note: WebGL enabled browser required.

epoch2024-03-31.0
epoch JD2460400.5
perihelion date2021-06-21.52513
perihelion JD2459387.02513
argument of perihelion (°)15.02139
ascending node (°)258.02651
inclination (°)6.10473
eccentricity0.1043685
perihelion distance (AU)2.0908740
Tisserand w.r.t. Jupiter3.6
ΔV w.r.t. Earth (km/sec)9.2
semimajor axis (AU)2.3345250
mean anomaly (°)280.03934
mean daily motion (°/day)0.27631600
aphelion distance (AU)2.578
period (years)3.57
P-vector [x]0.05173297
P-vector [y]-0.92686831
P-vector [z]-0.37180483
Q-vector [x]0.99322753
Q-vector [y]0.00896913
Q-vector [z]0.11583876
absolute magnitude15.12
phase slope0.15
uncertainty0
referenceMPEC 2024-F74
observations used1889
oppositions20
arc length (days)9646
first opposition used1997
last opposition used2024
residual rms (arc-secs)0.67
perturbers coarse indicatorM-v
perturbers precise indicator003Ek
first observation date used1997-10-23.0
last observation date used2024-03-21.0
computer nameMPCLINUX
JD of orbit computation2456966.707774
perihelion JD uncertainty (days)6.6371E-05
argument of perihelion uncertainty (°)3.9783E-05
ascending node uncertainty (°)3.4774E-05
inclination uncertainty (°)3.6772E-06
eccentricity uncertainty 3.2693E-08
perihelion distance uncertainty (AU)7.7340E-08
Minimum Orbit Intersection Distances (in AU)
for orbit epoch: 2460400.5, reference: E2024-GB3
Mercury1.62907
Venus1.3648
Earth1.07514
Mars0.59796
Jupiter2.49411
Saturn6.4645
Uranus16.0257
Neptune27.3363

Observations

1916 total observations over interval: 1997 10 23.76465 – 2024 03 21.454868
These data are available for download (format description).

Date (UT) J2000 RA J2000 Dec Magn Location Ref
1997 10 23.76465 04 23 03.85 +25 26 09.5   327 – Peking Observatory, Xinglong Station MPS 20962
1997 10 23.78372 04 23 03.14 +25 26 07.1 19.0   327 – Peking Observatory, Xinglong Station MPS 20962
1997 10 23.80365 04 23 02.38 +25 26 03.9   327 – Peking Observatory, Xinglong Station MPS 20962
1997 11 29.15128 03 48 23.95 +22 46 01.5 18.0   704 – Lincoln Laboratory ETS, New Mexico MPS 20962
1997 11 29.19817 03 48 20.91 +22 45 43.7 17.8   704 – Lincoln Laboratory ETS, New Mexico MPS 20962
1997 11 29.21673 03 48 19.72 +22 45 38.5 17.9   704 – Lincoln Laboratory ETS, New Mexico MPS 20962
1997 11 29.24023 03 48 17.93 +22 45 28.2 19.1   704 – Lincoln Laboratory ETS, New Mexico MPS 20962
1997 12 23.52829 03 28 26.99 +20 33 05.1 18.6   327 – Peking Observatory, Xinglong Station MPS 20962
1997 12 23.54745 03 28 26.41 +20 33 00.3   327 – Peking Observatory, Xinglong Station MPS 20962
1997 12 23.56666 03 28 25.79 +20 32 55.2   327 – Peking Observatory, Xinglong Station MPS 20962
1997 12 23.57859 03 28 25.41 +20 32 51.8 18.9   327 – Peking Observatory, Xinglong Station MPS 20962
1997 12 23.58841 03 28 25.09 +20 32 49.5   327 – Peking Observatory, Xinglong Station MPS 20962
1997 12 23.59831 03 28 24.81 +20 32 47.0   327 – Peking Observatory, Xinglong Station MPS 20962
1999 03 22.25603 11 18 04.81 -06 51 07.1 18.4 R 699 – Lowell Observatory-LONEOS MPS 20962
1999 03 22.27649 11 18 03.66 -06 50 59.1   699 – Lowell Observatory-LONEOS MPS 20962
1999 03 22.29685 11 18 02.46 -06 50 50.2   699 – Lowell Observatory-LONEOS MPS 20962
1999 03 25.19186 11 15 26.07 -06 30 33.0 17.5 R 699 – Lowell Observatory-LONEOS MPS 59468
1999 03 25.21222 11 15 24.94 -06 30 24.1   699 – Lowell Observatory-LONEOS MPS 59468
1999 03 25.23259 11 15 23.85 -06 30 16.0   699 – Lowell Observatory-LONEOS MPS 59468
2000 08 01.30907 23 28 18.37 +06 56 01.6 18.1   704 – Lincoln Laboratory ETS, New Mexico MPS 17977
2000 08 01.32359 23 28 18.09 +06 56 04.3 18.1   704 – Lincoln Laboratory ETS, New Mexico MPS 17977
2000 08 01.33815 23 28 17.77 +06 56 05.9 18.3   704 – Lincoln Laboratory ETS, New Mexico MPS 17977
2000 08 01.35308 23 28 17.60 +06 56 08.3 18.5   704 – Lincoln Laboratory ETS, New Mexico MPS 17977
2000 08 01.36762 23 28 17.30 +06 56 10.4 18.7   704 – Lincoln Laboratory ETS, New Mexico MPS 17977
2000 08 05.43399 23 26 59.19 +07 04 34.4 18.9   608 – Haleakala-AMOS MPS 17977
2000 08 05.44503 23 26 58.92 +07 04 35.4 18.9   608 – Haleakala-AMOS MPS 17977
2000 08 05.45584 23 26 58.64 +07 04 36.6 18.7   608 – Haleakala-AMOS MPS 17977
2000 09 01.25716 23 08 21.57 +06 19 55.0 17.3   704 – Lincoln Laboratory ETS, New Mexico MPS 17977
2000 09 01.27076 23 08 20.77 +06 19 50.8 17.3   704 – Lincoln Laboratory ETS, New Mexico MPS 17977
2000 09 01.28401 23 08 20.02 +06 19 47.1 17.5   704 – Lincoln Laboratory ETS, New Mexico MPS 17977
2000 09 01.29720 23 08 19.30 +06 19 44.0 18.5   704 – Lincoln Laboratory ETS, New Mexico MPS 17977
2000 09 01.31039 23 08 18.52 +06 19 39.7 17.4   704 – Lincoln Laboratory ETS, New Mexico MPS 17977
2000 09 03.25300 23 06 31.67 +06 10 03.5 18.0   704 – Lincoln Laboratory ETS, New Mexico MPS 17977
2000 09 03.26566 23 06 30.93 +06 10 00.0 17.7   704 – Lincoln Laboratory ETS, New Mexico MPS 17977
2000 09 03.27831 23 06 30.20 +06 09 55.8 17.7   704 – Lincoln Laboratory ETS, New Mexico MPS 17977
2000 09 03.29101 23 06 29.45 +06 09 51.5 17.6   704 – Lincoln Laboratory ETS, New Mexico MPS 17977
2000 09 03.30373 23 06 28.70 +06 09 47.7 17.4   704 – Lincoln Laboratory ETS, New Mexico MPS 17977
2000 09 05.25281 23 04 40.66 +05 59 29.2 17.7   704 – Lincoln Laboratory ETS, New Mexico MPS 17977
2000 09 05.26580 23 04 39.90 +05 59 24.7 17.8   704 – Lincoln Laboratory ETS, New Mexico MPS 17977
2000 09 05.27954 23 04 39.09 +05 59 20.3 18.0   704 – Lincoln Laboratory ETS, New Mexico MPS 17977
2000 09 05.29257 23 04 38.33 +05 59 16.0 17.9   704 – Lincoln Laboratory ETS, New Mexico MPS 17977
2000 09 05.33172 23 04 36.02 +05 59 02.7 17.4 R 699 – Lowell Observatory-LONEOS MPS 17977
2000 09 05.34553 23 04 35.22 +05 58 58.0   699 – Lowell Observatory-LONEOS MPS 17977
2000 09 05.35937 23 04 34.42 +05 58 53.6   699 – Lowell Observatory-LONEOS MPS 17977
2000 09 05.37320 23 04 33.60 +05 58 49.0   699 – Lowell Observatory-LONEOS MPS 17977
2000 09 06.24579 23 03 45.42 +05 53 58.8 17.7   704 – Lincoln Laboratory ETS, New Mexico MPS 17977
2000 09 06.25886 23 03 44.70 +05 53 54.6 17.7   704 – Lincoln Laboratory ETS, New Mexico MPS 17977
2000 09 06.27192 23 03 43.92 +05 53 50.3 17.9   704 – Lincoln Laboratory ETS, New Mexico MPS 17977
2000 09 06.28499 23 03 43.16 +05 53 45.0 18.3   704 – Lincoln Laboratory ETS, New Mexico MPS 17977
2000 09 06.29806 23 03 42.40 +05 53 40.6 18.0   704 – Lincoln Laboratory ETS, New Mexico MPS 17977
2000 09 21.32943 22 50 31.94 +04 16 34.7 18.7   608 – Haleakala-AMOS MPS 19223
2000 09 21.34057 22 50 31.39 +04 16 29.8 19.1   608 – Haleakala-AMOS MPS 19223
2000 09 21.35205 22 50 30.83 +04 16 25.3 18.9   608 – Haleakala-AMOS MPS 19223
2000 09 22.15911 22 49 53.43 +04 10 45.7 17.4 R 699 – Lowell Observatory-LONEOS MPS 30041
2000 09 22.18071 22 49 52.45 +04 10 37.8   699 – Lowell Observatory-LONEOS MPS 30041
2000 09 22.20233 22 49 51.38 +04 10 28.3   699 – Lowell Observatory-LONEOS MPS 30041
2000 09 22.22400 22 49 50.33 +04 10 19.6   699 – Lowell Observatory-LONEOS MPS 30041
2000 09 23.25140 22 49 03.59 +04 03 08.9 19.0   704 – Lincoln Laboratory ETS, New Mexico MPS 19223
2000 09 23.26622 22 49 02.96 +04 03 03.3 18.4   704 – Lincoln Laboratory ETS, New Mexico MPS 19223
2000 09 23.28126 22 49 02.24 +04 02 57.5 18.5   704 – Lincoln Laboratory ETS, New Mexico MPS 19223
2000 09 23.29598 22 49 01.57 +04 02 51.3 17.9   704 – Lincoln Laboratory ETS, New Mexico MPS 19223
2000 09 23.31070 22 49 00.87 +04 02 45.2 18.0   704 – Lincoln Laboratory ETS, New Mexico MPS 19223
2000 09 26.25329 22 46 55.18 +03 42 14.9 18.4   704 – Lincoln Laboratory ETS, New Mexico MPS 19223
2000 09 26.26789 22 46 54.55 +03 42 08.2 18.3   704 – Lincoln Laboratory ETS, New Mexico MPS 19223
2000 09 26.28451 22 46 53.82 +03 42 01.6 18.2   704 – Lincoln Laboratory ETS, New Mexico MPS 19223
2000 09 26.29928 22 46 53.21 +03 41 55.1 18.6   704 – Lincoln Laboratory ETS, New Mexico MPS 19223
2000 09 26.31510 22 46 52.48 +03 41 48.9 18.3   704 – Lincoln Laboratory ETS, New Mexico MPS 19223
2000 10 03.18349 22 42 47.90 +02 55 18.4 18.0   704 – Lincoln Laboratory ETS, New Mexico MPS 19223
2000 10 03.19869 22 42 47.35 +02 55 12.7 17.7   704 – Lincoln Laboratory ETS, New Mexico MPS 19223
2000 10 03.21397 22 42 46.86 +02 55 06.4 17.8   704 – Lincoln Laboratory ETS, New Mexico MPS 19223
2000 10 03.22920 22 42 46.37 +02 55 00.4 18.1   704 – Lincoln Laboratory ETS, New Mexico MPS 19223
2000 10 03.24449 22 42 45.88 +02 54 54.1 18.0   704 – Lincoln Laboratory ETS, New Mexico MPS 19223
2000 10 25.15064 22 38 43.57 +01 01 21.5 18.9   704 – Lincoln Laboratory ETS, New Mexico MPS 20962
2000 10 25.16421 22 38 43.77 +01 01 18.6 19.2   704 – Lincoln Laboratory ETS, New Mexico MPS 20962
2000 10 25.17787 22 38 43.79 +01 01 14.8 18.5   704 – Lincoln Laboratory ETS, New Mexico MPS 20962
2000 10 25.19195 22 38 43.87 +01 01 12.1 18.0   704 – Lincoln Laboratory ETS, New Mexico MPS 20962
2000 10 25.20772 22 38 44.04 +01 01 09.1 18.9   704 – Lincoln Laboratory ETS, New Mexico MPS 20962
2000 11 03.07912 22 41 04.64 +00 36 51.1 18.7   704 – Lincoln Laboratory ETS, New Mexico MPS 20962
2000 11 03.09287 22 41 04.90 +00 36 48.7 18.5   704 – Lincoln Laboratory ETS, New Mexico MPS 20962
2000 11 03.12036 22 41 05.48 +00 36 45.1 19.1   704 – Lincoln Laboratory ETS, New Mexico MPS 20962
2000 11 03.13407 22 41 05.80 +00 36 43.0 19.0   704 – Lincoln Laboratory ETS, New Mexico MPS 20962
2001 12 09.47071 07 40 35.61 +17 52 35.1 19.3 V 691 – Steward Observatory, Kitt Peak-Spacewatch MPS 43348
